• In United Kingdom
  • List of Countries
  • For 7 days
  • Water Temperature
  • Satellite Maps
  • Weather Map
  • Weather Widgets
  • user-avatar
    Login

    Hourly Weather Canberra

    Today, 21 September, Thursday

    Time Temperature Precipitation Wind Pressure Humidity
    00:00 +6°C° 0 mm 1 mps 709 mmHg 84%
    01:00 +6°C° 0 mm 1 mps 709 mmHg 83%
    02:00 +6°C° 0 mm 1 mps 709 mmHg 81%
    03:00 +6°C° 0 mm 1 mps 709 mmHg 79%
    04:00 +6°C° 0 mm 1 mps 709 mmHg 77%
    05:00 +7°C° 0 mm 1 mps 709 mmHg 72%
    06:00 +7°C° 0 mm 1 mps 709 mmHg 67%
    07:00 +8°C° 0 mm 1 mps 709 mmHg 63%
    08:00 +12°C° 0 mm 2 mps 709 mmHg 54%
    09:00 +15°C° 0 mm 2 mps 709 mmHg 45%
    10:00 +19°C° 0 mm 3 mps 709 mmHg 36%
    11:00 +20°C° 0 mm 3 mps 709 mmHg 35%
    12:00 +21°C° 0 mm 4 mps 708 mmHg 35%
    13:00 +22°C° 0 mm 4 mps 708 mmHg 34%
    14:00 +22°C° 0 mm 4 mps 708 mmHg 38%
    15:00 +21°C° 0 mm 4 mps 707 mmHg 41%
    16:00 +21°C° 0 mm 4 mps 707 mmHg 45%
    17:00 +18°C° 0 mm 3 mps 707 mmHg 54%
    18:00 +16°C° 0 mm 2 mps 707 mmHg 64%
    19:00 +13°C° 0 mm 2 mps 707 mmHg 74%
    20:00 +12°C° 0 mm 2 mps 707 mmHg 74%
    21:00 +12°C° 0 mm 2 mps 707 mmHg 74%
    22:00 +11°C° 0 mm 1 mps 707 mmHg 74%
    23:00 +10°C° 0 mm 2 mps 707 mmHg 72%

    Tomorrow, 22 September, Friday

    Time Temperature Precipitation Wind Pressure Humidity
    00:00 +10°C° 0 mm 2 mps 707 mmHg 70%
    01:00 +10°C° 0 mm 2 mps 706 mmHg 68%
    02:00 +10°C° 0 mm 2 mps 706 mmHg 65%
    03:00 +10°C° 0 mm 2 mps 706 mmHg 62%
    04:00 +10°C° 0 mm 2 mps 706 mmHg 59%
    05:00 +10°C° 0 mm 2 mps 706 mmHg 59%
    06:00 +10°C° 0 mm 2 mps 707 mmHg 58%
    07:00 +11°C° 0 mm 1 mps 707 mmHg 58%
    08:00 +14°C° 0 mm 2 mps 707 mmHg 50%
    09:00 +17°C° 0 mm 3 mps 707 mmHg 43%
    10:00 +20°C° 0 mm 3 mps 708 mmHg 35%
    11:00 +21°C° 0 mm 4 mps 707 mmHg 34%
    12:00 +22°C° 0 mm 4 mps 707 mmHg 32%
    13:00 +25°C° 0 mm 5 mps 706 mmHg 31%
    14:00 +23°C° 0 mm 4 mps 706 mmHg 34%
    15:00 +23°C° 0 mm 4 mps 706 mmHg 36%
    16:00 +22°C° 0 mm 4 mps 705 mmHg 39%
    17:00 +20°C° 0 mm 3 mps 705 mmHg 47%
    18:00 +17°C° 0 mm 2 mps 705 mmHg 55%
    19:00 +15°C° 0 mm 1 mps 705 mmHg 64%
    20:00 +14°C° 0 mm 1 mps 705 mmHg 63%
    21:00 +13°C° 0 mm 1 mps 705 mmHg 62%
    22:00 +13°C° 0 mm 1 mps 705 mmHg 61%
    23:00 +12°C° 0 mm 1 mps 704 mmHg 58%

    Day after tomorrow, 23 September, Saturday

    Time Temperature Precipitation Wind Pressure Humidity
    00:00 +12°C° 0 mm 1 mps 704 mmHg 55%
    01:00 +12°C° 0 mm 1 mps 703 mmHg 52%
    02:00 +12°C° 0 mm 1 mps 703 mmHg 50%
    03:00 +11°C° 0 mm 1 mps 703 mmHg 48%
    04:00 +11°C° 0 mm 1 mps 702 mmHg 47%
    05:00 +11°C° 0 mm 1 mps 703 mmHg 47%
    06:00 +12°C° 0 mm 1 mps 703 mmHg 48%
    07:00 +12°C° 0 mm 1 mps 703 mmHg 49%
    08:00 +15°C° 0 mm 2 mps 703 mmHg 44%
    09:00 +18°C° 0 mm 3 mps 703 mmHg 40%
    10:00 +22°C° 0 mm 3 mps 702 mmHg 35%
    11:00 +23°C° 0 mm 4 mps 702 mmHg 33%
    12:00 +26°C° 0 mm 5 mps 701 mmHg 31%
    13:00 +27°C° 0 mm 6 mps 700 mmHg 29%
    14:00 +27°C° 0 mm 5 mps 700 mmHg 32%
    15:00 +27°C° 0 mm 5 mps 699 mmHg 35%
    16:00 +27°C° 0 mm 5 mps 698 mmHg 38%
    17:00 +25°C° 0.1 mm 5 mps 698 mmHg 45%
    18:00 +22°C° 0.1 mm 4 mps 698 mmHg 53%
    19:00 +19°C° 0.1 mm 3 mps 697 mmHg 60%
    20:00 +19°C° 0.1 mm 3 mps 697 mmHg 59%
    21:00 +18°C° 0.1 mm 3 mps 697 mmHg 59%
    22:00 +18°C° 0.1 mm 3 mps 697 mmHg 58%
    23:00 +16°C° 0 mm 3 mps 697 mmHg 65%

    24 September, Sunday

    Time Temperature Precipitation Wind Pressure Humidity
    00:00 +15°C° 0 mm 2 mps 697 mmHg 73%
    01:00 +13°C° 0 mm 2 mps 697 mmHg 81%
    02:00 +12°C° 0 mm 3 mps 697 mmHg 81%
    03:00 +11°C° 0 mm 3 mps 698 mmHg 80%
    04:00 +10°C° 0 mm 3 mps 698 mmHg 80%
    05:00 +10°C° 0 mm 3 mps 698 mmHg 79%
    06:00 +10°C° 0 mm 4 mps 698 mmHg 79%
    07:00 +10°C° 0 mm 4 mps 698 mmHg 79%
    08:00 +12°C° 0 mm 5 mps 699 mmHg 69%
    09:00 +14°C° 0 mm 7 mps 699 mmHg 59%
    10:00 +16°C° 0 mm 8 mps 699 mmHg 49%
    11:00 +16°C° 0 mm 8 mps 699 mmHg 48%
    12:00 +16°C° 0 mm 8 mps 699 mmHg 47%
    13:00 +16°C° 0 mm 8 mps 698 mmHg 46%
    14:00 +16°C° 0 mm 8 mps 698 mmHg 45%
    15:00 +16°C° 0 mm 8 mps 698 mmHg 44%
    16:00 +16°C° 0 mm 8 mps 698 mmHg 43%
    17:00 +15°C° 0 mm 7 mps 699 mmHg 47%
    18:00 +14°C° 0 mm 6 mps 699 mmHg 51%
    19:00 +13°C° 0 mm 4 mps 700 mmHg 56%
    20:00 +12°C° 0 mm 4 mps 700 mmHg 58%
    21:00 +11°C° 0 mm 4 mps 700 mmHg 60%
    22:00 +11°C° 0 mm 4 mps 701 mmHg 62%
    23:00 +11°C° 0 mm 4 mps 701 mmHg 63%

    25 September, Monday

    Time Temperature Precipitation Wind Pressure Humidity
    00:00 +10°C° 0 mm 4 mps 701 mmHg 65%
    01:00 +10°C° 0 mm 4 mps 701 mmHg 66%
    02:00 +9°C° 0 mm 5 mps 701 mmHg 67%
    03:00 +8°C° 0 mm 5 mps 701 mmHg 67%
    04:00 +8°C° 0 mm 5 mps 702 mmHg 68%
    05:00 +8°C° 0 mm 4 mps 702 mmHg 68%
    06:00 +8°C° 0 mm 4 mps 702 mmHg 68%
    07:00 +8°C° 0 mm 4 mps 703 mmHg 68%
    08:00 +10°C° 0 mm 5 mps 703 mmHg 61%
    09:00 +13°C° 0 mm 5 mps 703 mmHg 55%
    10:00 +14°C° 0 mm 6 mps 704 mmHg 49%
    11:00 +15°C° 0 mm 6 mps 704 mmHg 48%
    12:00 +15°C° 0 mm 6 mps 704 mmHg 48%
    13:00 +15°C° 0 mm 7 mps 704 mmHg 48%
    14:00 +15°C° 0 mm 6 mps 704 mmHg 50%
    15:00 +14°C° 0 mm 5 mps 704 mmHg 52%
    16:00 +14°C° 0 mm 5 mps 704 mmHg 54%
    17:00 +12°C° 0 mm 4 mps 705 mmHg 64%
    18:00 +10°C° 0 mm 3 mps 705 mmHg 73%
    19:00 +9°C° 0 mm 2 mps 706 mmHg 82%
    20:00 +8°C° 0 mm 2 mps 706 mmHg 87%
    21:00 +7°C° 0 mm 2 mps 707 mmHg 91%
    22:00 +8°C° 0 mm 1 mps 707 mmHg 96%
    23:00 +7°C° 0 mm 1 mps 707 mmHg 96%

    26 September, Tuesday

    Time Temperature Precipitation Wind Pressure Humidity
    00:00 +7°C° 0 mm 1 mps 707 mmHg 96%
    01:00 +7°C° 0 mm 1 mps 706 mmHg 96%
    02:00 +6°C° 0 mm 1 mps 706 mmHg 95%
    03:00 +6°C° 0 mm 1 mps 706 mmHg 94%
    04:00 +6°C° 0 mm 1 mps 706 mmHg 93%
    05:00 +7°C° 0 mm 1 mps 707 mmHg 88%
    06:00 +8°C° 0 mm 1 mps 707 mmHg 84%
    07:00 +9°C° 0 mm 1 mps 708 mmHg 80%
    08:00 +11°C° 0 mm 1 mps 708 mmHg 71%
    09:00 +14°C° 0 mm 2 mps 708 mmHg 62%
    10:00 +16°C° 0 mm 2 mps 708 mmHg 53%
    11:00 +17°C° 0.1 mm 2 mps 707 mmHg 53%
    12:00 +17°C° 0.1 mm 2 mps 706 mmHg 52%
    13:00 +18°C° 0.1 mm 2 mps 706 mmHg 52%
    14:00 +17°C° 0 mm 2 mps 705 mmHg 56%
    15:00 +16°C° 0 mm 2 mps 705 mmHg 61%
    16:00 +16°C° 0 mm 1 mps 705 mmHg 66%
    17:00 +14°C° 0.1 mm 2 mps 704 mmHg 73%
    18:00 +13°C° 0.1 mm 2 mps 704 mmHg 81%
    19:00 +10°C° 0.1 mm 2 mps 703 mmHg 89%
    20:00 +10°C° 0 mm 2 mps 703 mmHg 90%
    21:00 +9°C° 0 mm 2 mps 703 mmHg 92%
    22:00 +9°C° 0 mm 2 mps 703 mmHg 94%
    23:00 +10°C° 0 mm 2 mps 703 mmHg 95%
    Show more